Lid_Strength_Index
1 2 2 2 2 2 2 2 2 2 1 1 1 1 1 1 1 1 1 1 2 2 2 2 2 2 1 4 6 -1 -2 -0 4 5 6 7 8 6 6 5 6 7 5 5 6 6 4
1 1 2 2 2 2 3 2 2 2 2 2 1 1 1 1 2 2 2 2 2 2 2 1 2 2 2 6 1 -1 3 3 5 6 6 6 7 6 6 5 6 6 5 5 6 6 5
2 2 2 2 2 2 3 2 2 2 2 2 2 2 2 2 2 2 2 2 2 2 1 1 1 1 3 5 1 -0 1 4 4 6 7 5 5 7 5 6 5 6 7 6 4 5 6
2 2 2 2 2 2 3 2 2 2 2 2 2 2 2 2 2 2 2 2 2 2 1 1 1 1 4 2 -0 0 2 4 4 5 6 5 5 6 6 5 6 7 7 7 5 5 5
1 1 2 2 2 2 2 2 2 2 2 2 2 2 2 2 2 2 2 3 2 1 1 0 1 2 5 2 2 1 2 4 5 5 6 6 6 7 6 7 8 8 8 7 7 5 6
2 1 1 2 2 2 3 2 2 2 2 2 2 2 2 2 2 2 3 3 2 1 1 0 1 4 3 4 3 2 2 2 5 6 6 6 6 8 8 7 10 8 8 7 7 6 6
2 2 2 1 2 2 3 2 2 2 2 2 2 2 2 3 2 3 3 2 3 3 3 5 4 5 4 3 3 3 2 3 4 5 8 7 9 10 8 7 6 7 7 7 6 5 6
2 2 2 2 1 2 2 2 2 2 2 2 2 2 2 2 3 3 2 5 6 5 7 4 4 4 3 3 6 4 2 4 5 8 7 8 10 8 8 8 7 7 8 7 7 6 6
2 2 2 2 2 1 2 2 2 2 2 2 2 3 3 3 3 3 3 5 4 3 6 5 5 5 5 4 5 4 2 3 6 7 8 9 9 8 9 9 9 7 7 7 7 7 6
2 2 2 2 3 2 1 2 2 2 2 2 2 3 3 4 3 3 4 4 3 2 7 6 5 5 5 4 6 3 2 3 5 7 7 8 7 9 9 10 9 9 6 7 8 8 9
2 2 2 3 4 4 2 1 2 1 1 2 2 2 3 4 3 3 4 3 3 2 12 6 5 3 4 5 4 5 2 3 6 7 7 8 9 9 10 9 8 9 8 7 7 8 8
0 2 2 3 3 4 3 1 2 1 1 2 2 2 3 2 2 3 2 3 2 8 12 7 5 6 6 5 5 4 4 3 4 6 6 7 6 7 7 8 8 7 8 7 7 7 11
-0 0 2 2 3 3 4 2 1 2 1 1 2 2 3 2 3 2 3 4 8 11 7 8 7 6 6 6 6 5 6 6 7 8 8 7 8 7 7 8 7 8 9 11 11 11 12
0 1 1 2 2 3 4 3 1 2 1 1 2 3 3 2 2 2 4 6 11 9 8 6 7 6 7 6 6 6 6 7 6 6 7 9 10 7 6 8 8 8 9 11 13 12 11
0 0 1 1 2 3 4 4 2 2 2 2 3 0 1 1 0 1 6 9 9 8 7 8 7 8 8 6 6 6 7 7 6 5 8 9 9 6 5 6 6 8 10 7 10 9 11
-1 0 1 1 2 2 3 3 2 1 2 2 0 1 2 -0 -0 3 8 10 8 7 6 7 9 7 8 7 7 7 7 6 6 5 5 7 10 6 6 5 5 6 6 9 9 12 13
-0 -0 1 1 2 3 3 3 2 1 2 3 1 4 2 -0 1 6 10 9 8 6 5 7 8 8 8 8 7 7 8 7 6 6 5 6 7 8 6 7 8 7 8 7 8 9 12
0 1 1 1 2 2 2 2 2 2 3 4 2 6 1 0 6 6 8 8 8 6 5 6 6 7 7 7 8 8 8 7 6 5 7 6 7 9 8 6 5 6 7 8 10 10 9
0 1 1 1 2 2 2 2 2 2 3 1 4 4 1 1 8 8 7 7 6 6 6 6 7 7 6 7 9 8 7 6 5 6 7 6 8 11 10 8 6 8 7 7 8 8 10
0 -0 1 1 2 2 2 2 2 2 3 2 4 7 4 3 4 6 7 8 8 5 5 5 6 6 6 7 6 8 7 6 5 6 6 5 8 9 11 10 8 9 8 7 8 10 10
1 1 1 1 2 2 2 2 2 2 3 2 4 6 5 8 6 6 6 7 7 7 5 5 6 7 7 8 7 8 7 6 6 7 6 6 9 8 8 8 8 8 8 8 8 8 10
1 1 1 1 1 2 2 2 2 3 3 3 5 6 4 6 6 6 7 7 8 7 6 7 6 6 6 7 7 7 6 6 7 6 6 6 8 8 9 7 8 9 8 7 8 7 7
0 1 1 1 1 2 2 2 2 3 3 3 2 2 5 7 7 7 7 7 7 6 5 5 5 6 6 6 5 4 4 5 5 6 7 8 8 9 10 8 8 10 9 9 8 7 8
0 1 1 1 1 1 2 2 2 2 3 1 1 2 6 8 7 7 6 6 7 6 7 6 5 6 5 3 3 4 4 5 5 6 6 8 8 8 10 9 13 9 7 7 8 7 7
0 1 1 -0 1 2 2 2 2 2 2 0 0 2 5 7 6 7 7 7 6 6 6 6 5 4 3 4 7 8 8 8 8 7 6 6 8 9 11 11 9 9 9 9 10 10 7
0 1 0 1 1 1 1 1 1 1 2 1 1 0 2 5 7 6 6 6 7 7 7 6 4 3 4 6 7 10 11 9 10 10 7 8 7 9 10 13 14 11 8 5 6 12 7
1 1 1 1 1 1 1 1 1 1 2 2 2 0 2 5 4 5 6 7 5 6 7 6 6 5 4 7 8 9 10 8 10 10 11 10 9 11 11 12 10 8 6 5 13 13 7
1 1 1 1 1 1 1 1 1 1 2 2 2 0 2 4 3 3 3 5 5 5 7 6 7 7 6 8 8 8 8 8 9 9 9 10 11 11 10 12 14 7 6 10 8 6 6
1 1 1 2 2 1 1 1 1 1 2 2 3 0 1 3 4 2 1 2 3 4 4 4 7 7 6 7 7 7 8 8 9 11 8 10 8 10 10 11 7 6 7 5 5 7 6